Showing default

GEESAT 6-01, 65713

Orbit data source: Space-Track

GEESAT 6-01, 65713 is a payload satellite owned by GeeSpace (CN) in LEO that was launched on Wed, 24 Sep 2025 UTC via a JIELONG-3 launch vehicle from the Yellow Sea Launch Area, China (YSLA). Payload-class satellites include a variety of spacecraft equipped with specific instruments for various scientific and technological missions. These include communications satellites like Starlink; space stations such as the ISS; scientific satellites like the Hubble; Earth observation satellites from companies like Planet Labs, Umbra, and HawkEye 360; GPS; miniature CubeSats for education and research; and military/defense satellites.

Loading next visibility...
Identifier
65713, 2025-214B
Orbit
LEO
Country
Flag of CNCN / PRC
Related business
Manufacturer
GWCG
Mission
Operational Commercial Navigation
Bus & Motor
GPS100, Unknown motor
Mass
130 kg wet, 130 kg dry
Launch date (UTC)
2025-09-24 (9 months ago)
Launch vehicle
JIELONG-3
Launch site
Yellow Sea Launch Area, China (YSLA)
Object type
Payload
Rocket body
Debris
Shape & HBR
Box + 2 Pan, 1.1 m
Radar Cross Section
0.833 m², Large (>1 m²)

Expand to show TLE details & history
Last TLE update: 1 day ago

TLE from 1 day ago
0 GEESAT 6-01
1 65713U 25214B   26170.61826809  .00001043  00000-0  15331-3 0  9996
2 65713  49.9870 297.3328 0012176 236.6224 123.3549 14.83340122 39868
Epoch: 2026-06-19T14:50Z
TLE epoch observation values (Epoch: 2026-06-19T14:50:18.362Z)
Latitude
-0.00007°
Longitude
166.91157°
Altitude
624.035 km
Speed
7.545 km/s
True Right ascension
19h 49m 19s
True Declination
0° 00' 00"
Sunlit
Object was in full shadow at epoch
Visualization orbit readout
Latitude
Unknown
Longitude
Unknown
Altitude
Unknown
Speed
Unknown
Apparent Right ascension
Unknown
Apparent Declination
Unknown
Sunlit
N/A
Visualization observer readout
Local Sidereal Time
08:33:08
Azimuth
Unknown
Elevation
Unknown
Doppler factor
Unknown
Orbital elements
Apogee altitude
628.081 km
Perigee altitude
611.041 km
Semi-major axis
6,997.698 km
Eccentricity
0.00122
Inclination
49.987°
RAAN
297.3328°
Arg. of periapsis
236.6224°
True anomaly
123.47135°
Mean anomaly
123.3549°
Eccentric anomaly
123.41313°
Mean motion
3.70775 °/min
Orbital period
97.09 mins
BSTAR
0.00015331
Loading maneuver chart data...
Computing Atmospheric mass density...
Loading historical data...
Loading historical data...
Loading historical data...
Loading historical data...
Loading historical data...
Loading historical data...
Loading historical data...

Documentation

Showing up to 5 results
|